| time (UTC) | temp F | wind direction | speed knots | gust knots | rain 1hr in | rain 24hr in | rain mn in | humidity % | barometer mb |
| 20260504022501 | 67 | 143 | 5.2 | 6.1 | 0.00 | 0.00 | 0.00 | 51 | 1015.3 |
| 20260504022001 | 68 | 142 | 6.1 | 6.1 | 0.00 | 0.00 | 0.00 | 51 | 1015.3 |
| 20260504021501 | 68 | 153 | 4.3 | 7.8 | 0.00 | 0.00 | 0.00 | 50 | 1015.3 |
| 20260504021001 | 68 | 142 | 5.2 | 7.8 | 0.00 | 0.00 | 0.00 | 50 | 1015.3 |
| 20260504015501 | 69 | 149 | 5.2 | 7.0 | 0.00 | 0.00 | 0.00 | 49 | 1015.2 |
| 20260504015001 | 69 | 148 | 5.2 | 6.1 | 0.00 | 0.00 | 0.00 | 49 | 1015.2 |
| 20260504014501 | 69 | 148 | 4.3 | 6.1 | 0.00 | 0.00 | 0.00 | 48 | 1015.2 |
| 20260504014001 | 69 | 157 | 6.1 | 6.1 | 0.00 | 0.00 | 0.00 | 47 | 1015.1 |
| 20260504013501 | 70 | 149 | 5.2 | 6.1 | 0.00 | 0.00 | 0.00 | 47 | 1015.1 |
| 20260504011501 | 72 | 175 | 4.3 | 6.1 | 0.00 | 0.00 | 0.00 | 42 | 1014.9 |
| 20260504011002 | 72 | 180 | 4.3 | 7.0 | 0.00 | 0.00 | 0.00 | 42 | 1014.9 |
| 20260504010501 | 73 | 187 | 5.2 | 7.8 | 0.00 | 0.00 | 0.00 | 41 | 1014.9 |
| 20260504005001 | 74 | 186 | 5.2 | 7.0 | 0.00 | 0.00 | 0.00 | 39 | 1014.8 |
| 20260504004501 | 74 | 163 | 3.5 | 7.8 | 0.00 | 0.00 | 0.00 | 39 | 1014.8 |
| 20260504004001 | 75 | 197 | 6.1 | 8.7 | 0.00 | 0.00 | 0.00 | 38 | 1014.8 |
| 20260504003501 | 75 | 186 | 6.1 | 8.7 | 0.00 | 0.00 | 0.00 | 37 | 1014.8 |
| 20260504003001 | 76 | 205 | 7.8 | 8.7 | 0.00 | 0.00 | 0.00 | 36 | 1014.9 |
| 20260504002001 | 77 | 200 | 7.8 | 11.3 | 0.00 | 0.00 | 0.00 | 34 | 1014.8 |
| 20260504001501 | 77 | 203 | 10.4 | 11.3 | 0.00 | 0.00 | 0.00 | 34 | 1014.9 |
| 20260504001001 | 77 | 204 | 8.7 | 11.3 | 0.00 | 0.00 | 0.00 | 33 | 1015.0 |
| 20260504000501 | 78 | 203 | 7.0 | 11.3 | 0.00 | 0.00 | 0.00 | 34 | 1015.0 |
| 20260504000001 | 78 | 202 | 8.7 | 11.3 | 0.00 | 0.00 | 0.00 | 34 | 1015.0 |
| 20260503235002 | 78 | 205 | 6.1 | 14.8 | 0.00 | 0.00 | 0.00 | 35 | 1015.1 |
| 20260503234001 | 78 | 208 | 10.4 | 14.8 | 0.00 | 0.00 | 0.00 | 32 | 1015.0 |
| 20260503233501 | 79 | 200 | 10.4 | 14.8 | 0.00 | 0.00 | 0.00 | 32 | 1015.2 |
| 20260503233001 | 79 | 200 | 9.6 | 14.8 | 0.00 | 0.00 | 0.00 | 33 | 1015.2 |
| 20260503231501 | 79 | 208 | 8.7 | 13.9 | 0.00 | 0.00 | 0.00 | 32 | 1015.3 |
| 20260503231001 | 79 | 189 | 11.3 | 11.3 | 0.00 | 0.00 | 0.00 | 31 | 1015.3 |
| 20260503230501 | 79 | 205 | 8.7 | 13.9 | 0.00 | 0.00 | 0.00 | 31 | 1015.3 |
| 20260503230001 | 79 | 189 | 10.4 | 16.5 | 0.00 | 0.00 | 0.00 | 30 | 1015.3 |
| 20260503225501 | 79 | 214 | 13.9 | 16.5 | 0.00 | 0.00 | 0.00 | 31 | 1015.3 |
| 20260503225001 | 79 | 205 | 8.7 | 15.6 | 0.00 | 0.00 | 0.00 | 31 | 1015.4 |
| 20260503224531 | 79 | 197 | 13.9 | 16.5 | 0.00 | 0.00 | 0.00 | 29 | 1015.3 |
| 20260503224003 | 80 | 199 | 12.2 | 16.5 | 0.00 | 0.00 | 0.00 | 30 | 1015.4 |
| 20260503223031 | 80 | 193 | 9.6 | 17.4 | 0.00 | 0.00 | 0.00 | 31 | 1015.5 |
| 20260503222531 | 80 | 195 | 7.8 | 17.4 | 0.00 | 0.00 | 0.00 | 31 | 1015.5 |
| 20260503222001 | 80 | 203 | 11.3 | 16.5 | 0.00 | 0.00 | 0.00 | 30 | 1015.5 |
| 20260503221502 | 80 | 226 | 12.2 | 14.8 | 0.00 | 0.00 | 0.00 | 31 | 1015.5 |
| 20260503221001 | 80 | 204 | 9.6 | 16.5 | 0.00 | 0.00 | 0.00 | 30 | 1015.6 |
| 20260503220532 | 80 | 191 | 8.7 | 20.0 | 0.00 | 0.00 | 0.00 | 31 | 1015.7 |
| 20260503220001 | 80 | 180 | 7.8 | 20.0 | 0.00 | 0.00 | 0.00 | 30 | 1015.8 |
| 20260503215502 | 80 | 216 | 11.3 | 17.4 | 0.00 | 0.00 | 0.00 | 31 | 1015.9 |
| 20260503215001 | 80 | 209 | 13.9 | 15.6 | 0.00 | 0.00 | 0.00 | 31 | 1015.9 |
| 20260503214531 | 80 | 207 | 9.6 | 14.8 | 0.00 | 0.00 | 0.00 | 31 | 1016.0 |
| 20260503214001 | 80 | 201 | 11.3 | 15.6 | 0.00 | 0.00 | 0.00 | 29 | 1016.1 |
| 20260503213002 | 80 | 205 | 11.3 | 16.5 | 0.00 | 0.00 | 0.00 | 32 | 1016.3 |
| 20260503212501 | 79 | 196 | 13.0 | 14.8 | 0.00 | 0.00 | 0.00 | 32 | 1016.3 |
| 20260503211031 | 80 | 231 | 8.7 | 15.6 | 0.00 | 0.00 | 0.00 | 33 | 1016.6 |
| 20260503210501 | 80 | 222 | 14.8 | 15.6 | 0.00 | 0.00 | 0.00 | 31 | 1016.6 |
| 20260503210001 | 79 | 204 | 9.6 | 15.6 | 0.00 | 0.00 | 0.00 | 33 | 1016.8 |
| 20260503205531 | 79 | 205 | 9.6 | 15.6 | 0.00 | 0.00 | 0.00 | 32 | 1016.9 |
| 20260503205031 | 80 | 207 | 11.3 | 20.9 | 0.00 | 0.00 | 0.00 | 32 | 1016.9 |
| 20260503204001 | 80 | 223 | 13.9 | 15.6 | 0.00 | 0.00 | 0.00 | 32 | 1017.0 |
| 20260503203531 | 79 | 220 | 13.9 | 15.6 | 0.00 | 0.00 | 0.00 | 30 | 1017.2 |
| 20260503203001 | 80 | 223 | 7.8 | 13.9 | 0.00 | 0.00 | 0.00 | 31 | 1017.4 |
| 20260503202531 | 80 | 235 | 5.2 | 16.5 | 0.00 | 0.00 | 0.00 | 34 | 1017.5 |
| 20260503202031 | 80 | 226 | 16.5 | 16.5 | 0.00 | 0.00 | 0.00 | 32 | 1017.4 |
| 20260503201502 | 80 | 187 | 10.4 | 14.8 | 0.00 | 0.00 | 0.00 | 31 | 1017.5 |
| 20260503200532 | 80 | 222 | 9.6 | 16.5 | 0.00 | 0.00 | 0.00 | 32 | 1017.7 |
| 20260503200032 | 80 | 241 | 13.0 | 16.5 | 0.00 | 0.00 | 0.00 | 30 | 1017.7 |
| 20260503195501 | 79 | 200 | 9.6 | 17.4 | 0.00 | 0.00 | 0.00 | 30 | 1017.8 |
| 20260503195001 | 80 | 220 | 14.8 | 21.7 | 0.00 | 0.00 | 0.00 | 31 | 1017.8 |
| 20260503194033 | 79 | 224 | 11.3 | 20.0 | 0.00 | 0.00 | 0.00 | 32 | 1018.1 |
| 20260503193502 | 79 | 239 | 17.4 | 20.0 | 0.00 | 0.00 | 0.00 | 36 | 1018.1 |
| 20260503193001 | 79 | 200 | 13.0 | 18.2 | 0.00 | 0.00 | 0.00 | 33 | 1018.2 |
| 20260503192502 | 79 | 247 | 9.6 | 17.4 | 0.00 | 0.00 | 0.00 | 38 | 1018.3 |
| 20260503191002 | 79 | 226 | 11.3 | 18.2 | 0.00 | 0.00 | 0.00 | 37 | 1018.5 |
| 20260503190501 | 79 | 233 | 13.0 | 20.0 | 0.00 | 0.00 | 0.00 | 37 | 1018.6 |
| 20260503190002 | 79 | 222 | 15.6 | 20.0 | 0.00 | 0.00 | 0.00 | 34 | 1018.6 |
| 20260503184502 | 79 | 252 | 13.0 | 17.4 | 0.00 | 0.00 | 0.00 | 38 | 1018.8 |
| 20260503184001 | 78 | 229 | 13.0 | 17.4 | 0.00 | 0.00 | 0.00 | 37 | 1018.9 |
| 20260503183001 | 78 | 232 | 13.0 | 16.5 | 0.00 | 0.00 | 0.00 | 37 | 1019.1 |
| 20260503182502 | 78 | 218 | 13.9 | 18.2 | 0.00 | 0.00 | 0.00 | 36 | 1019.1 |
| 20260503181502 | 78 | 250 | 9.6 | 18.2 | 0.00 | 0.00 | 0.00 | 40 | 1019.3 |
| 20260503180501 | 78 | 270 | 11.3 | 17.4 | 0.00 | 0.00 | 0.00 | 42 | 1019.4 |
| 20260503175532 | 78 | 230 | 13.9 | 18.2 | 0.00 | 0.00 | 0.00 | 41 | 1019.6 |
| 20260503175001 | 77 | 237 | 10.4 | 18.2 | 0.00 | 0.00 | 0.00 | 42 | 1019.7 |
| 20260503174501 | 77 | 248 | 13.0 | 16.5 | 0.00 | 0.00 | 0.00 | 42 | 1019.8 |
| 20260503174002 | 77 | 259 | 10.4 | 14.8 | 0.00 | 0.00 | 0.00 | 41 | 1019.9 |
| 20260503173502 | 77 | 238 | 11.3 | 15.6 | 0.00 | 0.00 | 0.00 | 40 | 1020.0 |
| 20260503173001 | 77 | 267 | 13.0 | 17.4 | 0.00 | 0.00 | 0.00 | 41 | 1020.0 |
| 20260503172502 | 77 | 237 | 13.9 | 17.4 | 0.00 | 0.00 | 0.00 | 41 | 1020.0 |
| 20260503172001 | 77 | 264 | 10.4 | 17.4 | 0.00 | 0.00 | 0.00 | 42 | 1020.1 |
| 20260503171502 | 77 | 221 | 11.3 | 16.5 | 0.00 | 0.00 | 0.00 | 42 | 1020.1 |
| 20260503171001 | 77 | 217 | 15.6 | 16.5 | 0.00 | 0.00 | 0.00 | 41 | 1020.3 |
| 20260503170501 | 77 | 260 | 13.0 | 13.9 | 0.00 | 0.00 | 0.00 | 41 | 1020.4 |
| 20260503150531 | 71 | 242 | 13.9 | 18.2 | 0.00 | 0.00 | 0.00 | 49 | 1020.7 |
| 20260503130501 | 58 | 219 | 6.1 | 7.8 | 0.00 | 0.00 | 0.00 | 75 | 1020.6 |
| 20260503110502 | 54 | 223 | 6.1 | 7.0 | 0.00 | 0.00 | 0.00 | 77 | 1019.7 |
| 20260503090502 | 57 | 228 | 5.2 | 6.1 | 0.00 | 0.00 | 0.00 | 73 | 1019.7 |
| 20260503081502 | 57 | 236 | 6.1 | 7.8 | 0.00 | 0.00 | 0.00 | 74 | 1019.6 |
| 20260503081002 | 57 | 236 | 7.0 | 7.8 | 0.00 | 0.00 | 0.00 | 74 | 1019.6 |
| 20260503080502 | 57 | 232 | 6.1 | 7.0 | 0.00 | 0.00 | 0.00 | 76 | 1019.6 |
| 20260503072502 | 57 | 233 | 7.0 | 7.8 | 0.00 | 0.00 | 0.00 | 75 | 1019.9 |
| 20260503072002 | 57 | 235 | 7.0 | 7.8 | 0.00 | 0.00 | 0.00 | 75 | 1019.9 |
| 20260503071502 | 57 | 228 | 7.0 | 7.8 | 0.00 | 0.00 | 0.00 | 74 | 1019.9 |
| 20260503071002 | 57 | 227 | 7.0 | 7.8 | 0.00 | 0.00 | 0.00 | 74 | 1019.9 |
| 20260503070502 | 58 | 228 | 7.0 | 7.8 | 0.00 | 0.00 | 0.00 | 73 | 1019.9 |
| 20260503054502 | 60 | 232 | 7.0 | 7.0 | 0.00 | 0.00 | 0.00 | 67 | 1019.8 |
| 20260503054002 | 60 | 231 | 6.1 | 6.1 | 0.00 | 0.00 | 0.00 | 66 | 1019.8 |
| 20260503053502 | 61 | 225 | 6.1 | 6.1 | 0.00 | 0.00 | 0.00 | 65 | 1019.7 |
| 20260503053002 | 61 | 225 | 6.1 | 6.1 | 0.00 | 0.00 | 0.00 | 65 | 1019.7 |
| 20260503052502 | 61 | 228 | 6.1 | 6.1 | 0.00 | 0.00 | 0.00 | 65 | 1019.7 |
| 20260503052002 | 61 | 231 | 6.1 | 6.1 | 0.00 | 0.00 | 0.00 | 66 | 1019.6 |
| 20260503051002 | 61 | 232 | 6.1 | 6.1 | 0.00 | 0.00 | 0.00 | 65 | 1019.6 |
| 20260503050503 | 61 | 232 | 6.1 | 6.1 | 0.00 | 0.00 | 0.00 | 64 | 1019.6 |
| 20260503050002 | 61 | 235 | 6.1 | 6.1 | 0.00 | 0.00 | 0.00 | 64 | 1019.6 |
| 20260503045502 | 61 | 233 | 6.1 | 6.1 | 0.00 | 0.00 | 0.00 | 64 | 1019.6 |
| 20260503045002 | 61 | 229 | 6.1 | 6.1 | 0.00 | 0.00 | 0.00 | 64 | 1019.6 |
| 20260503044532 | 61 | 230 | 6.1 | 6.1 | 0.00 | 0.00 | 0.00 | 64 | 1019.6 |
| 20260503043502 | 62 | 231 | 6.1 | 7.0 | 0.00 | 0.00 | 0.00 | 64 | 1019.6 |
| 20260503043002 | 62 | 229 | 6.1 | 7.0 | 0.00 | 0.00 | 0.00 | 64 | 1019.6 |
| 20260503042534 | 62 | 228 | 6.1 | 7.0 | 0.00 | 0.00 | 0.00 | 63 | 1019.6 |
| 20260503042032 | 62 | 229 | 6.1 | 7.0 | 0.00 | 0.00 | 0.00 | 63 | 1019.6 |
| 20260503040532 | 63 | 229 | 6.1 | 7.0 | 0.00 | 0.00 | 0.00 | 62 | 1019.6 |
| 20260503040002 | 63 | 225 | 6.1 | 6.1 | 0.00 | 0.00 | 0.00 | 61 | 1019.6 |
| 20260503035502 | 63 | 223 | 6.1 | 7.0 | 0.00 | 0.00 | 0.00 | 61 | 1019.6 |
| 20260503035002 | 63 | 223 | 6.1 | 7.0 | 0.00 | 0.00 | 0.00 | 61 | 1019.6 |
| 20260503034502 | 64 | 230 | 6.1 | 6.1 | 0.00 | 0.00 | 0.00 | 61 | 1019.6 |
| 20260503034002 | 64 | 228 | 5.2 | 6.1 | 0.00 | 0.00 | 0.00 | 61 | 1019.6 |
| 20260503033502 | 64 | 223 | 6.1 | 6.1 | 0.00 | 0.00 | 0.00 | 61 | 1019.6 |
| 20260503033002 | 64 | 225 | 6.1 | 6.1 | 0.00 | 0.00 | 0.00 | 60 | 1019.6 |
| 20260503032502 | 64 | 221 | 5.2 | 6.1 | 0.00 | 0.00 | 0.00 | 60 | 1019.6 |
| 20260503032002 | 64 | 226 | 6.1 | 6.1 | 0.00 | 0.00 | 0.00 | 60 | 1019.6 |
| 20260503031502 | 64 | 229 | 5.2 | 6.1 | 0.00 | 0.00 | 0.00 | 59 | 1019.5 |
| 20260503030502 | 65 | 229 | 5.2 | 6.1 | 0.00 | 0.00 | 0.00 | 58 | 1019.4 |
| 20260503030002 | 66 | 218 | 5.2 | 5.2 | 0.00 | 0.00 | 0.00 | 57 | 1019.3 |
| 20260503025502 | 66 | 226 | 5.2 | 5.2 | 0.00 | 0.00 | 0.00 | 57 | 1019.3 |
| 20260503025032 | 66 | 232 | 5.2 | 5.2 | 0.00 | 0.00 | 0.00 | 56 | 1019.3 |
| 20260503024503 | 66 | 217 | 5.2 | 5.2 | 0.00 | 0.00 | 0.00 | 56 | 1019.2 |
| 20260503024002 | 66 | 217 | 5.2 | 5.2 | 0.00 | 0.00 | 0.00 | 55 | 1019.2 |